EW2358 Weather Reports


Display with metric or nautical units.
time (UTC)temp
F
wind
direction
speed
MPH
gust
MPH
rain 1hr
in
rain 24hr
in
rain mn
in
humidity
%
barometer
mb
20260505124557 74 121 0.0 0.0 0.00 0.00 0.00 79 1016.3
20260505123150 71 117 0.0 0.0 0.00 0.00 0.00 87 1016.0
20260505121616 67 117 0.0 0.0 0.00 0.00 0.00 95 1016.0
20260505120041 63 117 0.0 0.0 0.00 0.00 0.00 97 1015.9
20260505114541 60 117 0.0 0.0 0.00 0.00 0.00 98 1015.8
20260505113044 57 119 0.0 1.0 0.00 0.00 0.00 96 1015.8
20260505111539 56 360 0.0 0.0 0.00 0.00 0.00 95 1015.6
20260505101530 56 117 0.0 0.0 0.00 0.00 0.00 94 1015.1
20260505100036 56 117 0.0 0.0 0.00 0.00 0.00 94 1015.1
20260505094525 56 117 0.0 0.0 0.00 0.00 0.00 94 1014.9
20260505093029 57 117 0.0 0.0 0.00 0.00 0.00 94 1014.8
20260505091533 57 117 0.0 0.0 0.00 0.00 0.00 94 1014.7
20260505090024 57 117 0.0 0.0 0.00 0.00 0.00 94 1014.7
20260505084525 57 117 0.0 0.0 0.00 0.00 0.00 94 1014.8
20260505083032 57 117 0.0 0.0 0.00 0.00 0.00 93 1014.8
20260505081522 57 117 0.0 0.0 0.00 0.00 0.00 93 1014.7
20260505080032 57 117 0.0 0.0 0.00 0.00 0.00 93 1014.7
20260505074518 58 117 0.0 0.0 0.00 0.00 0.00 92 1014.7
20260505073016 58 117 0.0 0.0 0.00 0.00 0.00 92 1014.9
20260505071522 58 117 0.0 0.0 0.00 0.00 0.00 92 1014.9
20260505070013 59 117 0.0 0.0 0.00 0.00 0.00 91 1014.9
20260505064511 59 117 0.0 0.0 0.00 0.00 0.00 91 1014.8
20260505063014 59 118 0.0 0.0 0.00 0.00 0.00 91 1015.1
20260505061507 60 118 0.0 0.0 0.00 0.00 0.00 90 1015.0
20260505060006 60 119 0.0 0.0 0.00 0.00 0.00 90 1015.2
20260505054503 61 118 0.0 0.0 0.00 0.00 0.00 89 1015.4
20260505053100 61 118 0.0 0.0 0.00 0.00 0.00 89 1015.5
20260505051557 61 119 0.0 0.0 0.00 0.00 0.00 87 1015.7
20260505041558 63 119 0.0 0.0 0.00 0.00 0.00 85 1016.1
20260505040045 64 119 0.0 0.0 0.00 0.00 0.00 84 1016.0
20260505034544 65 118 0.0 0.0 0.00 0.00 0.00 83 1016.0
20260505033044 65 118 0.0 0.0 0.00 0.00 0.00 82 1016.3
20260505031543 66 119 0.0 0.0 0.00 0.00 0.00 82 1016.4
20260505030055 66 119 0.0 0.0 0.00 0.00 0.00 82 1016.4
20260505024543 66 119 0.0 0.0 0.00 0.00 0.00 81 1016.3
20260505023042 66 120 0.0 0.0 0.00 0.00 0.00 81 1016.4
20260505021551 66 120 0.0 0.0 0.00 0.00 0.00 81 1016.4
20260505020051 66 119 0.0 0.0 0.00 0.00 0.00 80 1016.5
20260505014543 67 120 0.0 0.0 0.00 0.00 0.00 79 1016.3
20260505013042 67 120 0.0 0.0 0.00 0.00 0.00 78 1016.3
20260505011540 68 119 0.0 0.0 0.00 0.00 0.00 76 1016.1
20260505004538 69 119 0.0 0.0 0.00 0.00 0.00 72 1015.9
20260505003047 70 360 0.0 0.0 0.00 0.00 0.00 71 1015.9
20260505001540 71 112 0.0 0.0 0.00 0.00 0.00 68 1015.7
20260505000044 72 360 1.0 4.0 0.00 0.00 0.00 67 1015.4
20260504234536 73 82 1.0 9.0 0.00 0.00 0.00 65 1015.2
20260504233044 74 101 2.0 6.0 0.00 0.00 0.00 65 1015.0
20260504231537 75 71 2.0 9.0 0.00 0.00 0.00 63 1015.1
20260504230039 75 165 2.0 11.0 0.00 0.00 0.00 63 1014.9
20260504224536 75 109 4.0 9.0 0.00 0.00 0.00 62 1015.2
20260504223033 76 90 2.0 11.0 0.00 0.00 0.00 62 1015.5
20260504221531 76 111 4.0 8.0 0.00 0.00 0.00 61 1015.4
20260504220031 77 105 4.0 9.0 0.00 0.00 0.00 59 1015.2
20260504214539 77 113 3.0 10.0 0.00 0.00 0.00 59 1015.4
20260504213030 78 136 3.0 10.0 0.00 0.00 0.00 58 1015.4
20260504211527 78 171 3.0 10.0 0.00 0.00 0.00 61 1015.5
20260504210025 77 91 5.0 10.0 0.00 0.00 0.00 62 1015.5
20260504204524 78 57 3.0 12.0 0.00 0.00 0.00 60 1015.6
20260504203023 77 130 2.0 8.0 0.00 0.00 0.00 61 1015.6
20260504201523 78 139 2.0 10.0 0.00 0.00 0.00 61 1015.7
20260504200021 80 95 5.0 11.0 0.00 0.00 0.00 58 1015.7
20260504194518 79 360 4.0 11.0 0.00 0.00 0.00 59 1015.8
20260504193017 78 80 4.0 10.0 0.00 0.00 0.00 62 1016.0
20260504191520 79 138 2.0 11.0 0.00 0.00 0.00 58 1016.2
20260504190014 79 130 3.0 11.0 0.00 0.00 0.00 60 1016.4
20260504184522 79 25 3.0 13.0 0.00 0.00 0.00 58 1016.7
20260504183022 79 55 3.0 9.0 0.00 0.00 0.00 61 1016.8
20260504181512 79 28 4.0 8.0 0.00 0.00 0.00 61 1016.9
20260504180009 78 75 3.0 11.0 0.00 0.00 0.00 62 1017.0
20260504174508 78 84 3.0 8.0 0.00 0.00 0.00 60 1017.1
20260504173007 79 148 3.0 8.0 0.00 0.00 0.00 59 1017.2
20260504171506 80 104 4.0 10.0 0.00 0.00 0.00 60 1017.1
20260504160106 78 338 4.0 11.0 0.00 0.00 0.00 60 1017.7